This is the latest recevied weather packets stored in our database for station/object HB9CEY-10. If no packets are shown the sender has not sent any weather packets the latest 10 day(s).
| Time | Temp. | Humidity | Pressure | Rain* | Wind** | Luminosity | Snow |
|---|---|---|---|---|---|---|---|
| 1777629527 | 17.78° C | 31% | 1025.6 hPa | - | - | - | - |
| 1777628627 | 17.78° C | 31% | 1025.6 hPa | - | - | - | - |
| 1777627727 | 17.22° C | 31% | 1025.6 hPa | - | - | - | - |
| 1777626827 | 16.67° C | 31% | 1025.5 hPa | - | - | - | - |
| 1777625927 | 16.11° C | 31% | 1025.6 hPa | - | - | - | - |
| 1777625027 | 16.11° C | 31% | 1025.6 hPa | - | - | - | - |
| 1777624127 | 16.67° C | 31% | 1025.6 hPa | - | - | - | - |
| 1777623227 | 17.22° C | 31% | 1025.7 hPa | - | - | - | - |
| 1777622327 | 17.22° C | 31% | 1025.7 hPa | - | - | - | - |
| 1777621427 | 17.22° C | 31% | 1025.5 hPa | - | - | - | - |
| 1777620527 | 17.22° C | 32% | 1025.6 hPa | - | - | - | - |
| 1777619627 | 16.67° C | 32% | 1025.7 hPa | - | - | - | - |
| 1777618727 | 16.11° C | 30% | 1025.7 hPa | - | - | - | - |
| 1777617826 | 15° C | 30% | 1025.7 hPa | - | - | - | - |
| 1777616927 | 13.89° C | 31% | 1025.9 hPa | - | - | - | - |
| 1777616026 | 11.67° C | 32% | 1026 hPa | - | - | - | - |
| 1777615126 | 10° C | 35% | 1026 hPa | - | - | - | - |
| 1777614226 | 7.22° C | 39% | 1025.9 hPa | - | - | - | - |
| 1777613326 | 7.22° C | 41% | 1025.9 hPa | - | - | - | - |
| 1777612426 | 6.11° C | 37% | 1026 hPa | - | - | - | - |
| 1777611526 | 6.11° C | 37% | 1025.9 hPa | - | - | - | - |
| 1777610626 | 6.11° C | 37% | 1025.7 hPa | - | - | - | - |
| 1777609726 | 6.11° C | 37% | 1025.5 hPa | - | - | - | - |
| 1777608826 | 6.67° C | 37% | 1025.5 hPa | - | - | - | - |
| 1777607926 | 6.67° C | 37% | 1025.3 hPa | - | - | - | - |
* Rain since midnight (hover to see other rain measurements)
** Current wind speed in m/s (hover to see current wind gust speed)